EW9963 Weather Reports


time (UTC)temp
F
wind
direction
speed
knots
gust
knots
rain 1hr
in
rain 24hr
in
rain mn
in
humidity
%
barometer
mb
20260509000041 67 0 0.0 0.0 0.00 0.00 0.00 66 1014.5
20260508234539 68 0 0.0 0.0 0.00 0.00 0.00 62 1014.3
20260508233051 69 0 0.0 0.9 0.00 0.00 0.00 58 1014.1
20260508231541 69 0 0.0 0.0 0.00 0.00 0.00 60 1014.2
20260508230053 70 0 0.0 0.0 0.00 0.00 0.00 55 1014.1
20260508224541 70 0 0.0 0.9 0.00 0.00 0.00 54 1014.2
20260508223040 70 0 0.0 1.7 0.00 0.00 0.00 52 1014.5
20260508221546 71 0 0.0 3.5 0.00 0.00 0.00 50 1014.4
20260508220050 71 0 0.0 1.7 0.00 0.00 0.00 49 1014.3
20260508214547 72 0 0.9 2.6 0.00 0.00 0.00 48 1014.3
20260508213040 72 0 0.0 2.6 0.00 0.00 0.00 45 1014.2
20260508211543 71 128 0.9 3.5 0.00 0.00 0.00 47 1014.2
20260508210057 71 0 0.9 3.5 0.00 0.00 0.00 44 1014.4
20260508204539 72 5 0.0 3.5 0.00 0.00 0.00 43 1014.5
20260508203040 72 167 0.9 3.5 0.00 0.00 0.00 43 1014.5
20260508201544 72 329 0.0 3.5 0.00 0.00 0.00 43 1014.6
20260508200047 72 346 0.9 3.5 0.00 0.00 0.00 42 1014.7
20260508194546 72 360 1.7 4.3 0.00 0.00 0.00 43 1014.7
20260508193045 72 0 0.0 3.5 0.00 0.00 0.00 42 1015.3
20260508191546 71 98 0.0 3.5 0.00 0.00 0.00 44 1015.6
20260508190053 71 57 1.7 3.5 0.00 0.00 0.00 43 1015.6
20260508184556 71 32 1.7 7.0 0.00 0.00 0.00 44 1016.0
20260508183040 70 12 1.7 7.0 0.00 0.00 0.00 43 1016.2
20260508181558 69 307 0.9 5.2 0.00 0.00 0.00 48 1016.3
20260508180046 69 5 0.9 5.2 0.00 0.00 0.00 46 1016.2
20260508174546 69 355 1.7 7.8 0.00 0.04 0.00 45 1016.5
20260508173046 69 0 3.5 10.4 0.00 0.04 0.00 47 1016.6
20260508171541 69 11 1.7 4.3 0.00 0.04 0.00 47 1016.8
20260508170045 69 26 1.7 7.0 0.00 0.04 0.00 50 1016.8
20260508164558 68 348 5.2 9.6 0.00 0.22 0.00 49 1017.0
20260508163039 68 355 4.3 9.6 0.00 0.22 0.00 49 1017.5
20260508161548 67 23 2.6 6.1 0.00 0.22 0.00 54 1017.4
20260508160043 67 343 0.9 7.0 0.00 0.22 0.00 56 1017.6
20260508154543 66 342 3.5 7.8 0.00 0.36 0.00 54 1017.9
20260508153041 66 5 4.3 8.7 0.00 0.36 0.00 54 1017.9
20260508151541 66 337 4.3 8.7 0.00 0.36 0.00 55 1017.8
20260508150040 66 23 2.6 9.6 0.00 0.36 0.00 57 1018.0
20260508144604 66 38 3.5 7.8 0.00 0.36 0.00 57 1018.0
20260508143040 65 265 3.5 8.7 0.00 0.36 0.00 59 1017.7
20260508141551 65 318 2.6 7.0 0.00 0.36 0.00 62 1017.7
20260508140048 64 345 3.5 9.6 0.00 0.36 0.00 63 1017.8
20260508134544 64 360 3.5 10.4 0.00 0.36 0.00 64 1017.9
20260508133110 63 346 4.3 9.6 0.00 0.36 0.00 64 1017.7
20260508131548 62 332 3.5 10.4 0.00 0.36 0.00 68 1017.5
20260508130045 62 344 1.7 7.8 0.00 0.36 0.00 72 1017.2
20260508124540 60 5 3.5 9.6 0.00 0.36 0.00 74 1017.3
20260508123057 60 34 1.7 7.8 0.00 0.36 0.00 76 1017.2
20260508121540 59 355 2.6 5.2 0.00 0.36 0.00 82 1017.1
20260508120047 58 11 1.7 4.3 0.00 0.36 0.00 86 1016.9
20260508114546 57 351 0.9 3.5 0.00 0.46 0.00 88 1016.5
20260508113059 56 360 0.9 1.7 0.00 0.46 0.00 90 1016.2
20260508111544 54 0 0.0 0.9 0.00 0.46 0.00 91 1016.1
20260508110050 53 0 0.0 0.9 0.00 0.46 0.00 90 1015.7
20260508104544 53 0 0.0 0.0 0.00 0.48 0.00 89 1015.4
20260508103047 54 0 0.0 0.0 0.00 0.48 0.00 89 1015.1
20260508101544 54 0 0.0 0.0 0.00 0.48 0.00 89 1015.0
20260508100043 55 0 0.0 0.0 0.00 0.48 0.00 89 1014.8
20260508094541 55 0 0.0 0.0 0.00 0.52 0.00 89 1014.8
20260508093041 55 0 0.0 1.7 0.00 0.52 0.00 89 1014.6
20260508091558 56 0 0.0 2.6 0.00 0.52 0.00 89 1014.8
20260508090104 56 351 0.0 1.7 0.00 0.52 0.00 89 1014.6
20260508084539 56 0 0.0 0.9 0.00 0.52 0.00 89 1014.6
20260508083043 55 0 0.0 0.0 0.00 0.52 0.00 88 1014.4
20260508081541 56 0 0.0 0.9 0.00 0.52 0.00 88 1014.3
20260508080040 56 0 0.0 0.0 0.00 0.52 0.00 87 1014.2
20260508074544 56 0 0.0 0.0 0.00 0.52 0.00 86 1014.1
20260508073040 57 0 0.0 0.9 0.00 0.52 0.00 86 1013.7
20260508071552 57 0 0.0 1.7 0.00 0.52 0.00 86 1013.7
20260508070044 57 0 0.0 1.7 0.00 0.52 0.00 85 1013.6
20260508064543 58 344 0.0 2.6 0.00 0.52 0.00 85 1013.6
20260508063041 58 350 0.0 2.6 0.00 0.52 0.00 84 1014.0
20260508061540 59 0 0.0 1.7 0.00 0.52 0.00 84 1014.0
20260508060040 59 0 0.0 3.5 0.00 0.52 0.00 83 1013.9
20260508054537 59 0 0.0 3.5 0.00 0.52 0.00 83 1014.0
20260508053109 60 346 0.0 2.6 0.00 0.52 0.00 82 1013.9
20260508051545 60 329 0.0 0.9 0.00 0.52 0.00 81 1014.0
20260508050042 61 345 0.9 4.3 0.00 0.52 0.00 80 1013.8
20260508044540 62 355 1.7 7.8 0.00 0.71 0.00 78 1013.6
20260508043037 62 331 1.7 7.0 0.00 0.71 0.00 78 1013.3
20260508041610 62 336 3.5 8.7 0.00 0.71 0.00 79 1013.3
20260508040104 63 304 2.6 7.0 0.00 0.71 0.00 80 1013.3
20260508034541 63 355 1.7 8.7 0.00 0.92 0.71 79 1013.3
20260508033040 63 320 2.6 7.8 0.00 0.92 0.71 80 1013.1
20260508031546 64 355 3.5 11.3 0.00 0.92 0.71 80 1012.7
20260508030044 66 5 2.6 8.7 0.00 0.92 0.71 79 1012.6
20260508024546 68 333 2.6 7.8 0.00 0.92 0.71 80 1012.2
20260508023041 68 0 0.0 0.0 0.00 0.92 0.71 84 1011.3
20260508021544 69 0 0.0 1.7 0.00 0.92 0.71 84 1011.0
20260508020050 69 0 0.0 0.9 0.00 0.92 0.71 85 1010.8
20260508014546 70 0 0.0 1.7 0.00 0.92 0.71 84 1010.2
20260508013048 70 0 0.0 1.7 0.00 0.92 0.71 84 1010.0
20260508011551 70 0 0.0 1.7 0.00 0.92 0.71 84 1009.7
20260508010039 71 0 0.0 0.9 0.00 0.92 0.71 83 1009.5
20260508004543 72 0 0.0 0.9 0.00 0.92 0.71 81 1009.4
20260508003044 72 0 0.0 1.7 0.00 0.92 0.71 80 1009.1
20260508001542 73 134 0.0 1.7 0.00 0.92 0.71 78 1008.9